loading
DOY 171 | 2024-06-19T22:16:51Z

THOR ABLESTAR DEB, 658

Orbit data source: Space-Track

THOR ABLESTAR DEB, 658 is space debris in LEO originally from a launch on Thu, 29 Jun 1961 UTC launched from the Air Force Eastern Test Range (AFETR). Debris objects in space refer to the collection of defunct objects orbiting the Earth. Examples of debris include non-operational satellites, rocket bodies, and fragments generated from explosions, collisions, or faulty payload assembly.

Loading next visibility...
Loading greatness...
THOR ABLESTAR DEB details
NORAD ID658
COSPAR ID
1961-015HK
Orbit
LEO
Last TLE update8 hours ago
Origin
Flag of USUSAF SSD (US)
ManufacturerUnknown
BusUnknown
MotorUnknown
MassWet unknown, Dry mass unknown
Launch date (UTC)
1961-06-29 (63 years ago)
Launch vehicleUnknown
Launch site
Air Force Eastern Test Range (AFETR)
Object type
Payload
Rocket body
Debris
Radar Cross SectionSmall (<0.1 m²)
Predictive object data (real-time)
Latitude-65.93957°
Longitude-178.24658°
Altitude1,040.022 km
Speed7.378 km/s
Apparent Right ascension20h 39m 08s
Apparent Declination-54° 11' 33"
Sunlit
Object is in full shadow
Predictive observer data (real-time)
Local Sidereal Time09:10:53
Azimuth162.107° S
Elevation-74.757°
Doppler factor1
Orbital elements
Apogee1,376.418 km
Perigee841.548 km
Semi-major axis7,487.12 km
Eccentricity0.0357194
Inclination65.867°
RAAN31.1434°
Arg. of periapsis197.5373°
True anomaly162.56599°
Mean anomaly161.3076°
Mean motion3.3502 °/min
BSTAR0.0012642
Period107.46 mins
Definitive object data (Epoch: 2024-06-19T13:47:27.469Z)
Latitude-0.00004°
Longitude-84.00013°
Altitude1,366.738 km
Speed7.053 km/s
True Right ascension02h 04m 34s
True Declination0° 00' 00"
Sunlit
Object was in daylight at TLE epoch
TLE from 8 hours ago
0 THOR ABLESTAR DEB
1 00658U 61015HK  24171.57462349  .00000921  00000-0  12642-2 0  9996
2 00658  65.8670  31.1434 0357194 197.5373 161.3076 13.39686587962066
Epoch: 2024-06-19T13:47Z
No data available

THOR ABLESTAR DEB Visibility forecast

Observer location: 39.9160978°, -105.1181434, 0m alt.

THOR ABLESTAR DEB is not visible in the next 10 days
Span
Click to sort rows by Start time (UTC) header in descending order
Start Az.
Max El. time (UTC)
Max El. Az.
Max El.
End time (UTC)
End Az.